• In Uzbekistan
  • List of Countries
  • For 7 days
  • Water Temperature
  • Weather Map
  • Weather Widgets
  • user-avatar
    Login

    Hourly Weather Zaranj

    Today, 9 April, Thursday

    Time Temperature Precipitation Wind Pressure Humidity
    00:00 +10°C° 0 mm 16 mps 720 mmHg 57%
    01:00 +9°C° 0 mm 16 mps 721 mmHg 57%
    02:00 +7°C° 0 mm 16 mps 721 mmHg 57%
    03:00 +7°C° 0 mm 16 mps 721 mmHg 56%
    04:00 +6°C° 0 mm 15 mps 721 mmHg 54%
    05:00 +6°C° 0 mm 15 mps 721 mmHg 54%
    06:00 +6°C° 0 mm 14 mps 722 mmHg 53%
    07:00 +6°C° 0 mm 14 mps 722 mmHg 52%
    08:00 +9°C° 0 mm 13 mps 723 mmHg 49%
    09:00 +10°C° 0 mm 13 mps 723 mmHg 45%
    10:00 +13°C° 0 mm 13 mps 723 mmHg 41%
    11:00 +14°C° 0 mm 12 mps 723 mmHg 39%
    12:00 +15°C° 0 mm 12 mps 722 mmHg 37%
    13:00 +17°C° 0 mm 11 mps 721 mmHg 35%
    14:00 +18°C° 0 mm 10 mps 721 mmHg 34%
    15:00 +18°C° 0 mm 10 mps 720 mmHg 34%
    16:00 +18°C° 0 mm 9 mps 720 mmHg 34%
    17:00 +17°C° 0 mm 9 mps 720 mmHg 37%
    18:00 +16°C° 0 mm 9 mps 720 mmHg 39%
    19:00 +15°C° 0 mm 8 mps 720 mmHg 41%
    20:00 +15°C° 0 mm 7 mps 720 mmHg 42%
    21:00 +15°C° 0 mm 7 mps 721 mmHg 44%
    22:00 +15°C° 0 mm 6 mps 721 mmHg 45%
    23:00 +14°C° 0 mm 5 mps 721 mmHg 46%

    Tomorrow, 10 April, Friday

    Time Temperature Precipitation Wind Pressure Humidity
    00:00 +14°C° 0 mm 5 mps 720 mmHg 47%
    01:00 +14°C° 0 mm 4 mps 720 mmHg 47%
    02:00 +14°C° 0 mm 4 mps 719 mmHg 48%
    03:00 +13°C° 0 mm 3 mps 719 mmHg 48%
    04:00 +13°C° 0 mm 3 mps 719 mmHg 48%
    05:00 +13°C° 0 mm 3 mps 719 mmHg 47%
    06:00 +15°C° 0 mm 2 mps 720 mmHg 46%
    07:00 +15°C° 0 mm 2 mps 720 mmHg 45%
    08:00 +16°C° 0 mm 2 mps 720 mmHg 43%
    09:00 +18°C° 0 mm 3 mps 721 mmHg 41%
    10:00 +19°C° 0 mm 3 mps 721 mmHg 39%
    11:00 +20°C° 0 mm 3 mps 721 mmHg 37%
    12:00 +22°C° 0 mm 3 mps 720 mmHg 34%
    13:00 +24°C° 0 mm 2 mps 720 mmHg 32%
    14:00 +24°C° 0 mm 3 mps 720 mmHg 31%
    15:00 +25°C° 0 mm 3 mps 719 mmHg 31%
    16:00 +25°C° 0 mm 3 mps 719 mmHg 31%
    17:00 +25°C° 0 mm 3 mps 719 mmHg 32%
    18:00 +25°C° 0 mm 3 mps 719 mmHg 32%
    19:00 +25°C° 0 mm 3 mps 719 mmHg 33%
    20:00 +24°C° 0 mm 2 mps 719 mmHg 35%
    21:00 +24°C° 0 mm 1 mps 720 mmHg 36%
    22:00 +24°C° 0 mm 1 mps 720 mmHg 38%
    23:00 +24°C° 0 mm 1 mps 720 mmHg 38%

    Day after tomorrow, 11 April, Saturday

    Time Temperature Precipitation Wind Pressure Humidity
    00:00 +24°C° 0 mm 2 mps 720 mmHg 38%
    01:00 +23°C° 0 mm 2 mps 720 mmHg 38%
    02:00 +22°C° 0 mm 3 mps 720 mmHg 40%
    03:00 +22°C° 0 mm 3 mps 719 mmHg 43%
    04:00 +22°C° 0 mm 4 mps 719 mmHg 45%
    05:00 +22°C° 0 mm 3 mps 720 mmHg 48%
    06:00 +23°C° 0 mm 2 mps 720 mmHg 51%
    07:00 +23°C° 0 mm 1 mps 721 mmHg 54%
    08:00 +25°C° 0 mm 2 mps 721 mmHg 48%
    09:00 +27°C° 0 mm 2 mps 721 mmHg 43%
    10:00 +28°C° 0 mm 2 mps 721 mmHg 38%
    11:00 +30°C° 0 mm 2 mps 720 mmHg 33%
    12:00 +31°C° 0 mm 2 mps 720 mmHg 28%
    13:00 +33°C° 0 mm 1 mps 720 mmHg 23%
    14:00 +34°C° 0 mm 2 mps 719 mmHg 23%
    15:00 +35°C° 0 mm 2 mps 718 mmHg 22%
    16:00 +35°C° 0 mm 3 mps 717 mmHg 21%
    17:00 +34°C° 0 mm 3 mps 717 mmHg 23%
    18:00 +33°C° 0 mm 3 mps 717 mmHg 25%
    19:00 +32°C° 0 mm 4 mps 717 mmHg 26%
    20:00 +30°C° 0 mm 4 mps 717 mmHg 29%
    21:00 +30°C° 0 mm 4 mps 717 mmHg 31%
    22:00 +29°C° 0 mm 4 mps 717 mmHg 33%
    23:00 +28°C° 0 mm 4 mps 717 mmHg 37%

    12 April, Sunday

    Time Temperature Precipitation Wind Pressure Humidity
    00:00 +27°C° 0 mm 4 mps 717 mmHg 40%
    01:00 +26°C° 0 mm 4 mps 717 mmHg 43%
    02:00 +26°C° 0 mm 4 mps 716 mmHg 45%
    03:00 +26°C° 0 mm 4 mps 716 mmHg 48%
    04:00 +25°C° 0 mm 3 mps 716 mmHg 50%
    05:00 +25°C° 0 mm 3 mps 716 mmHg 50%
    06:00 +26°C° 0 mm 3 mps 717 mmHg 49%
    07:00 +26°C° 0 mm 3 mps 717 mmHg 49%
    08:00 +27°C° 0 mm 2 mps 717 mmHg 44%
    09:00 +29°C° 0 mm 2 mps 717 mmHg 39%
    10:00 +30°C° 0 mm 1 mps 717 mmHg 34%
    11:00 +31°C° 0 mm 1 mps 717 mmHg 30%
    12:00 +32°C° 0 mm 1 mps 717 mmHg 26%
    13:00 +34°C° 0 mm 1 mps 716 mmHg 22%
    14:00 +35°C° 0 mm 2 mps 716 mmHg 19%
    15:00 +36°C° 0 mm 2 mps 715 mmHg 17%
    16:00 +37°C° 0 mm 2 mps 715 mmHg 14%
    17:00 +36°C° 0 mm 3 mps 715 mmHg 15%
    18:00 +35°C° 0 mm 3 mps 715 mmHg 17%
    19:00 +34°C° 0 mm 4 mps 715 mmHg 18%
    20:00 +32°C° 0 mm 6 mps 715 mmHg 26%
    21:00 +29°C° 0 mm 7 mps 716 mmHg 34%
    22:00 +27°C° 0 mm 8 mps 716 mmHg 42%
    23:00 +27°C° 0 mm 7 mps 716 mmHg 43%

    13 April, Monday

    Time Temperature Precipitation Wind Pressure Humidity
    00:00 +26°C° 0 mm 6 mps 716 mmHg 45%
    01:00 +25°C° 0 mm 5 mps 716 mmHg 47%
    02:00 +25°C° 0 mm 4 mps 716 mmHg 49%
    03:00 +24°C° 0 mm 3 mps 716 mmHg 51%
    04:00 +24°C° 0 mm 2 mps 715 mmHg 53%
    05:00 +24°C° 0 mm 3 mps 716 mmHg 53%
    06:00 +24°C° 0 mm 3 mps 716 mmHg 52%
    07:00 +23°C° 0 mm 4 mps 717 mmHg 52%
    08:00 +26°C° 0 mm 4 mps 717 mmHg 48%
    09:00 +27°C° 0 mm 5 mps 717 mmHg 45%
    10:00 +28°C° 0 mm 6 mps 718 mmHg 41%
    11:00 +28°C° 0 mm 6 mps 717 mmHg 40%
    12:00 +28°C° 0 mm 7 mps 717 mmHg 39%
    13:00 +28°C° 0 mm 7 mps 717 mmHg 39%
    14:00 +28°C° 0 mm 6 mps 717 mmHg 38%
    15:00 +28°C° 0 mm 5 mps 717 mmHg 38%
    16:00 +29°C° 0 mm 4 mps 717 mmHg 38%
    17:00 +26°C° 0.3 mm 5 mps 717 mmHg 46%
    18:00 +23°C° 0.3 mm 7 mps 717 mmHg 55%
    19:00 +21°C° 0.3 mm 8 mps 718 mmHg 63%
    20:00 +19°C° 0 mm 9 mps 718 mmHg 62%
    21:00 +19°C° 0 mm 9 mps 718 mmHg 61%
    22:00 +18°C° 0 mm 10 mps 718 mmHg 60%
    23:00 +17°C° 0 mm 11 mps 718 mmHg 60%

    14 April, Tuesday

    Time Temperature Precipitation Wind Pressure Humidity
    00:00 +17°C° 0 mm 11 mps 718 mmHg 60%
    01:00 +16°C° 0 mm 11 mps 717 mmHg 61%
    02:00 +16°C° 0 mm 11 mps 717 mmHg 61%
    03:00 +14°C° 0 mm 11 mps 718 mmHg 62%
    04:00 +14°C° 0 mm 12 mps 718 mmHg 63%
    05:00 +14°C° 0 mm 12 mps 718 mmHg 62%
    06:00 +14°C° 0 mm 12 mps 719 mmHg 60%
    07:00 +14°C° 0 mm 12 mps 719 mmHg 59%
    08:00 +17°C° 0 mm 11 mps 719 mmHg 54%
    09:00 +18°C° 0 mm 11 mps 720 mmHg 49%
    10:00 +19°C° 0 mm 11 mps 720 mmHg 43%
    11:00 +22°C° 0 mm 10 mps 719 mmHg 40%
    12:00 +23°C° 0 mm 10 mps 719 mmHg 37%
    13:00 +24°C° 0 mm 9 mps 719 mmHg 34%
    14:00 +24°C° 0 mm 10 mps 718 mmHg 34%
    15:00 +24°C° 0 mm 10 mps 718 mmHg 34%
    16:00 +26°C° 0 mm 10 mps 717 mmHg 34%
    17:00 +24°C° 0 mm 10 mps 717 mmHg 37%
    18:00 +23°C° 0 mm 9 mps 718 mmHg 39%
    19:00 +22°C° 0 mm 9 mps 718 mmHg 41%
    20:00 +21°C° 0 mm 9 mps 718 mmHg 43%
    21:00 +19°C° 0 mm 9 mps 719 mmHg 44%
    22:00 +19°C° 0 mm 9 mps 719 mmHg 45%
    23:00 +18°C° 0 mm 9 mps 719 mmHg 47%
    Show more